Regional Weather Roundup
Issued by NWS Green Bay, WI

Home | Current Version | Previous Version | Graphics & Text | Print | Product List | Glossary Off
Versions: 1 2 3 4 5 6 7 8 9 10 11 12 13 14 15 16 17 18 19 20 21 22 23 24 25 26 27 28 29 30 31 32 33 34 35 36 37 38 39 40 41 42 43 44 45 46 47 48 49 50

000
ASUS43 KGRB 191600
RWRGRB

NORTH-CENTRAL AND NORTHEAST WISCONSIN REGIONAL WEATHER ROUNDUP
NATIONAL WEATHER SERVICE GREEN BAY WI
1000 AM CST MON FEB 19 2018

WIZ005-009-010>012-018-019-191700-
NORTH CENTRAL WISCONSIN

CITY           SKY/WX    TMP DP  RH WIND       PRES   REMARKS
IRONWOOD       LGT SNOW  17  13  84 NE7       30.04S FOG     WCI   8
MANITOWISH WTR NOT AVBL
ARBOR VITAE    NOT AVBL
EAGLE RIVER    LGT SNOW  20  18  93 N13G18    29.94R WCI   7
LAND O LAKES   LGT SNOW  19  17  94 NE9       29.97S WCI   8
RHINELANDER    MIX PCPN  22  19  89 NE14G20   29.93R WCI   9
PHILLIPS       CLOUDY    19  16  88 NE16G23   29.92F FOG     WCI   4
ANTIGO         NOT AVBL
TOMAHAWK       NOT AVBL
MERRILL        CLOUDY    27  24  86 N10       29.89F
$$

WIZ013-073-191700-
NORTHEAST WISCONSIN

CITY           SKY/WX    TMP DP  RH WIND       PRES   REMARKS
IRON MOUNTAIN  CLOUDY    24  19  81 N12       29.96R
MARINETTE      CLOUDY    34  29  82 NE10      29.93S
$$

WIZ017-030-035>037-045-191700-
CENTRAL WISCONSIN

CITY           SKY/WX    TMP DP  RH WIND       PRES   REMARKS
MEDFORD        NOT AVBL
WAUSAU         CLOUDY    30  25  81 NE8       29.85F
MOSINEE        CLOUDY    28  28 100 NE9       29.87S FOG
MARSHFIELD     CLOUDY    30  27  88 NE12      29.84R FOG
WISC RAPIDS    CLOUDY    32  27  81 NE8       29.85S
STEVENS POINT  NOT AVBL
WAUPACA        PTSUNNY   36  30  79 NE7       29.86S
SHAWANO        CLOUDY    33  29  85 NE10      29.89F
CLINTONVILLE   CLOUDY    33  28  81 NE8       29.89R
WAUTOMA        CLOUDY    36  31  82 NE10      29.85R
$$

WIZ038-039-048-051-191700-
FOX VALLEY

CITY           SKY/WX    TMP DP  RH WIND       PRES   REMARKS
NWS GREEN BAY  FAIR      38  30  73 NE9       29.88S
APPLETON       PTSUNNY   36  28  75 NE8       29.85R
OSHKOSH        CLOUDY    39  32  76 NE5       29.84R
FOND DU LAC    PTSUNNY   41  32  70 NE6       29.84R
$$

WIZ022-050-052-191700-
EAST CENTRAL WISCONSIN

CITY           SKY/WX    TMP DP  RH WIND       PRES   REMARKS
EPHRAIM        NOT AVBL
WASHINGTON ISL NOT AVBL
STURGEON BAY   FAIR      33  30  88 N20       29.90R
MANITOWOC      FAIR      38  33  82 CALM      29.88S HAZE
SHEBOYGAN      FAIR      38  34  85 NE5       29.85R FOG
$$

LMZ563-521-522-541>543-191700-
LAKESHORE

STATION/POSITION TIME  TEMP    WIND        PRES    VSBY  WAVE
                       AIR SEA DIR/SP/G                  HT/PER
                 (UTC) (F)     (DEG/KT/KT) (MB)    (MI)  (FT/S)
SHEBOYGAN LKSHOR 1500   36      CALM  /  1 1011.3F
KEWAUNEE LKSHORE 1530   38     330/  4/  5 1011.1R
NORTHPORT PIER   1540   32                 1013.2S
MENOMINEE LKSHOR 1524   31      30/ 19/ 22 1012.8
$$




USA.gov is the U.S. government's official web portal to all federal, state and local government web resources and services.